2020-003D (45019 NORAD) Tracking and Keplerian Element Data

This shows tracking and keplerian element data for the satellite.

Feedback or suggestion? Click here.




ElementValue
Catalog45019
Name2020-003D
Epoch Orbit508
Epoch Day48.44405687
Epoch Year2020
RAAN116.7896
Inclination97.332
Eccentricity0.0014331
Argument of Perigee151.7915
Mean Anonmoly208.4104
Mean Motion15.27415477
Decay Rate6.45E-06
L11 45019U 20003D 20048.44405687 .00000645 00000-0 26679-4 0 9995
L22 45019 97.3320 116.7896 0014331 151.7915 208.4104 15.27415477 5089

Live tracking and technical data element details for 2020-003D (NORAD 45019). 2020-003D can be tracked NOW for your location showing map with azimuth and elevation plus other details from your city location.

Track the satellite on the map from your city or location and see movement details for azimuth, elevation, latitude, longitude, range, height, and movement on the map or in text.







IsCatalogInMostPopularTable: catalog: 45019, numindb: 8
Update: records affected: 1



GetName: 45019 2020-003D

Hit Count: updated at: Tue, 18 Feb 2020 01:18:20 GMT